GW2344 Weather Reports


Display with metric or nautical units.
time (UTC)temp
F
wind
direction
speed
MPH
gust
MPH
rain 1hr
in
rain 24hr
in
rain mn
in
humidity
%
barometer
mb
20260503020402 67 49 0.0 1.0 0.00 0.00 0.00 41 1013.9
20260503015858 67 49 3.0 3.0 0.00 0.00 0.00 39 1013.6
20260503015355 67 61 3.0 3.0 0.00 0.00 0.00 38 1013.4
20260503014850 67 58 2.0 2.0 0.00 0.00 0.00 41 1013.6
20260503014348 68 40 1.0 2.0 0.00 0.00 0.00 39 1013.7
20260503013846 69 57 2.0 2.0 0.00 0.00 0.00 38 1013.4
20260503013343 69 47 1.0 2.0 0.00 0.00 0.00 39 1013.3
20260503012840 70 52 2.0 3.0 0.00 0.00 0.00 39 1013.6
20260503012338 70 28 3.0 3.0 0.00 0.00 0.00 35 1013.6
20260503011834 71 44 3.0 3.0 0.00 0.00 0.00 38 1013.4
20260503011331 71 57 3.0 3.0 0.00 0.00 0.00 35 1013.7
20260503010827 71 65 3.0 3.0 0.00 0.00 0.00 36 1013.6
20260503010325 71 38 1.0 2.0 0.00 0.00 0.00 35 1013.6
20260503005821 71 43 2.0 2.0 0.00 0.00 0.00 34 1013.6
20260503005319 72 44 3.0 3.0 0.00 0.00 0.00 32 1013.6
20260503004815 72 59 2.0 2.0 0.00 0.00 0.00 32 1013.6
20260503004313 73 55 3.0 3.0 0.00 0.00 0.00 34 1013.7
20260503003810 73 41 4.0 5.0 0.00 0.00 0.00 29 1013.5
20260503003307 74 86 3.0 6.0 0.00 0.00 0.00 31 1013.9
20260503002804 74 37 2.0 2.0 0.00 0.00 0.00 30 1013.4
20260503002301 73 59 0.0 0.0 0.00 0.00 0.00 31 1013.6
20260503001757 73 50 3.0 5.0 0.00 0.00 0.00 30 1013.7
20260503001254 74 40 2.0 2.0 0.00 0.00 0.00 32 1014.0
20260503000751 75 63 1.0 1.0 0.00 0.00 0.00 27 1013.7
20260503000248 73 58 1.0 2.0 0.00 0.00 0.00 28 1013.9
20260502235745 73 63 2.0 2.0 0.00 0.00 0.00 29 1013.7
20260502235243 75 39 3.0 3.0 0.00 0.00 0.00 28 1013.7
20260502234739 73 68 3.0 3.0 0.00 0.00 0.00 29 1013.7
20260502234236 73 24 5.0 7.0 0.00 0.00 0.00 29 1013.7
20260502233732 73 39 4.0 5.0 0.00 0.00 0.00 28 1013.9
20260502233229 74 45 3.0 3.0 0.00 0.00 0.00 26 1013.9
20260502232725 73 64 2.0 2.0 0.00 0.00 0.00 30 1014.1
20260502232222 73 37 4.0 6.0 0.00 0.00 0.00 28 1013.9
20260502231719 74 70 7.0 9.0 0.00 0.00 0.00 30 1014.0
20260502231217 74 23 6.0 7.0 0.00 0.00 0.00 28 1014.2
20260502230716 74 47 3.0 3.0 0.00 0.00 0.00 29 1014.0
20260502230213 73 51 5.0 7.0 0.00 0.00 0.00 30 1014.3
20260502225709 73 59 7.0 9.0 0.00 0.00 0.00 28 1014.3
20260502225206 73 54 5.0 6.0 0.00 0.00 0.00 30 1014.5
20260502224702 73 41 7.0 8.0 0.00 0.00 0.00 28 1014.6
20260502224159 73 10 8.0 10.0 0.00 0.00 0.00 29 1014.4
20260502223657 73 1 7.0 9.0 0.00 0.00 0.00 29 1014.5
20260502223155 73 35 5.0 6.0 0.00 0.00 0.00 31 1014.4
20260502222652 74 18 6.0 7.0 0.00 0.00 0.00 28 1014.6
20260502222148 73 63 6.0 7.0 0.00 0.00 0.00 28 1014.8
20260502221643 73 31 5.0 6.0 0.00 0.00 0.00 27 1014.7
20260502221136 73 53 4.0 5.0 0.00 0.00 0.00 27 1015.1
20260502220632 73 31 5.0 6.0 0.00 0.00 0.00 28 1014.9
20260502220128 73 55 8.0 10.0 0.00 0.00 0.00 30 1014.8
20260502215625 73 28 6.0 7.0 0.00 0.00 0.00 28 1015.1
20260502215122 74 54 8.0 9.0 0.00 0.00 0.00 29 1015.1
20260502214619 74 29 4.0 5.0 0.00 0.00 0.00 29 1015.3
20260502214116 75 71 3.0 3.0 0.00 0.00 0.00 31 1015.2
20260502213614 75 61 3.0 5.0 0.00 0.00 0.00 30 1015.2
20260502213111 75 44 4.0 5.0 0.00 0.00 0.00 27 1015.3
20260502212610 74 56 3.0 6.0 0.00 0.00 0.00 29 1015.3
20260502212108 75 156 3.0 5.0 0.00 0.00 0.00 26 1015.5
20260502211602 75 242 2.0 2.0 0.00 0.00 0.00 25 1015.4
20260502211100 75 60 1.0 1.0 0.00 0.00 0.00 29 1015.5
20260502210557 74 247 3.0 5.0 0.00 0.00 0.00 27 1015.4
20260502210054 74 182 2.0 2.0 0.00 0.00 0.00 26 1015.7
20260502205550 73 54 1.0 2.0 0.00 0.00 0.00 30 1015.7
20260502205048 74 63 1.0 1.0 0.00 0.00 0.00 28 1015.7
20260502204544 75 35 2.0 2.0 0.00 0.00 0.00 29 1015.7
20260502204042 75 62 1.0 1.0 0.00 0.00 0.00 28 1016.0
20260502203539 74 62 1.0 1.0 0.00 0.00 0.00 29 1016.0
20260502203036 73 61 0.0 0.0 0.00 0.00 0.00 27 1016.0
20260502202532 72 24 1.0 1.0 0.00 0.00 0.00 30 1016.2
20260502202031 72 51 1.0 1.0 0.00 0.00 0.00 27 1016.0
20260502201526 73 58 0.0 0.0 0.00 0.00 0.00 30 1016.3
20260502201022 73 49 2.0 2.0 0.00 0.00 0.00 32 1016.0
20260502200518 71 63 1.0 1.0 0.00 0.00 0.00 33 1016.4
20260502200017 69 54 2.0 2.0 0.00 0.00 0.00 34 1016.4
20260502195514 70 67 1.0 1.0 0.00 0.00 0.00 33 1016.5
20260502195010 70 51 1.0 2.0 0.00 0.00 0.00 33 1016.7
20260502194507 69 67 2.0 2.0 0.00 0.00 0.00 36 1016.5
20260502194002 68 74 1.0 1.0 0.00 0.00 0.00 34 1016.6
20260502193500 69 58 0.0 0.0 0.00 0.00 0.00 38 1016.7
20260502192955 68 70 1.0 2.0 0.00 0.00 0.00 36 1016.6
20260502192452 70 68 1.0 2.0 0.00 0.00 0.00 35 1017.3
20260502191949 68 56 1.0 1.0 0.00 0.00 0.00 36 1017.1
20260502191447 68 63 0.0 0.0 0.00 0.00 0.00 38 1017.0
20260502190945 67 105 1.0 1.0 0.00 0.00 0.00 38 1017.0
20260502190442 67 70 0.0 1.0 0.00 0.00 0.00 39 1017.3
20260502185938 67 61 2.0 2.0 0.00 0.00 0.00 38 1017.3
20260502185434 65 66 1.0 1.0 0.00 0.00 0.00 43 1017.3
20260502184931 66 46 0.0 0.0 0.00 0.00 0.00 45 1017.6
20260502184426 64 95 2.0 2.0 0.00 0.00 0.00 43 1017.5
20260502183923 65 110 2.0 3.0 0.00 0.00 0.00 42 1017.7
20260502183419 64 102 1.0 2.0 0.00 0.00 0.00 45 1017.6
20260502182914 64 95 1.0 2.0 0.00 0.00 0.00 42 1018.0
20260502182410 64 54 1.0 1.0 0.00 0.00 0.00 44 1017.8
20260502181906 63 290 2.0 2.0 0.00 0.00 0.00 44 1018.1
20260502181405 62 23 2.0 2.0 0.00 0.00 0.00 47 1018.1
20260502180903 62 104 3.0 5.0 0.00 0.00 0.00 47 1018.2
20260502180400 62 100 2.0 2.0 0.00 0.00 0.00 43 1018.0
20260502170319 56 84 1.0 2.0 0.00 0.00 0.00 53 1018.5
20260502164306 55 127 2.0 2.0 0.00 0.00 0.00 54 1018.7
20260502163802 54 65 0.0 0.0 0.00 0.00 0.00 56 1018.9
20260502163258 55 5 3.0 3.0 0.00 0.00 0.00 55 1018.9
20260502162756 55 46 2.0 3.0 0.00 0.00 0.00 55 1019.0
20260502162253 55 61 0.0 0.0 0.00 0.00 0.00 53 1019.0
20260502161749 55 60 0.0 0.0 0.00 0.00 0.00 55 1019.1
20260502161240 54 64 1.0 1.0 0.00 0.00 0.00 53 1019.1
20260502160738 53 83 2.0 2.0 0.00 0.00 0.00 54 1019.0
20260502160237 55 73 1.0 1.0 0.00 0.00 0.00 54 1019.1
20260502152200 50 116 2.0 2.0 0.00 0.00 0.00 67 1019.2
20260502151658 49 47 0.0 1.0 0.00 0.00 0.00 69 1019.1
20260502151155 50 60 1.0 1.0 0.00 0.00 0.00 69 1019.5
20260502150652 48 62 0.0 0.0 0.00 0.00 0.00 71 1019.2
20260502150148 47 62 0.0 0.0 0.00 0.00 0.00 72 1019.6
20260502140112 41 60 0.0 0.0 0.00 0.00 0.00 83 1019.3
20260502130537 34 62 0.0 0.0 0.00 0.00 0.00 93 1019.2
20260502123520 33 63 0.0 0.0 0.00 0.00 0.00 93 1019.0
20260502123017 33 63 0.0 0.0 0.00 0.00 0.00 92 1019.2
20260502122513 34 64 0.0 0.0 0.00 0.00 0.00 93 1019.1
20260502122011 34 63 0.0 0.0 0.00 0.00 0.00 92 1019.0
20260502121508 33 63 0.0 0.0 0.00 0.00 0.00 91 1019.0
20260502121005 34 60 0.0 0.0 0.00 0.00 0.00 90 1019.0
20260502120502 35 63 0.0 0.0 0.00 0.00 0.00 92 1019.1
20260502115456 35 64 0.0 0.0 0.00 0.00 0.00 91 1018.9
20260502114952 35 63 0.0 0.0 0.00 0.00 0.00 90 1019.0
20260502114449 35 63 0.0 0.0 0.00 0.00 0.00 90 1019.1
20260502113946 35 62 0.0 0.0 0.00 0.00 0.00 90 1019.0
20260502113443 36 62 0.0 0.0 0.00 0.00 0.00 92 1018.9
20260502112942 36 65 0.0 0.0 0.00 0.00 0.00 93 1018.9
20260502112439 35 64 0.0 0.0 0.00 0.00 0.00 93 1018.9
20260502111937 35 64 0.0 0.0 0.00 0.00 0.00 93 1018.8
20260502111434 33 64 0.0 0.0 0.00 0.00 0.00 92 1018.9
20260502110931 33 62 0.0 0.0 0.00 0.00 0.00 90 1018.7
20260502110429 34 61 0.0 0.0 0.00 0.00 0.00 88 1018.8
20260502105926 36 62 0.0 0.0 0.00 0.00 0.00 90 1018.8
20260502105423 36 69 0.0 0.0 0.00 0.00 0.00 92 1018.9
20260502104921 35 63 0.0 0.0 0.00 0.00 0.00 90 1018.8
20260502104418 35 62 0.0 0.0 0.00 0.00 0.00 89 1018.7
20260502103915 35 62 0.0 0.0 0.00 0.00 0.00 89 1018.8
20260502103413 36 63 0.0 0.0 0.00 0.00 0.00 88 1018.6
20260502102909 37 62 0.0 0.0 0.00 0.00 0.00 89 1018.7
20260502102406 37 65 0.0 0.0 0.00 0.00 0.00 89 1018.6
20260502101904 37 62 0.0 0.0 0.00 0.00 0.00 88 1018.2
20260502101402 38 66 0.0 0.0 0.00 0.00 0.00 87 1018.6
20260502100900 38 62 0.0 0.0 0.00 0.00 0.00 89 1018.5
20260502100359 38 64 0.0 0.0 0.00 0.00 0.00 89 1018.5
20260502091332 38 62 0.0 0.0 0.00 0.00 0.00 85 1018.1
20260502090830 39 61 0.0 0.0 0.00 0.00 0.00 84 1018.2
20260502090327 39 62 0.0 0.0 0.00 0.00 0.00 85 1018.1
20260502071222 42 62 0.0 0.0 0.00 0.00 0.00 78 1017.8
20260502070720 43 62 0.0 0.0 0.00 0.00 0.00 77 1017.9
20260502070217 43 62 0.0 0.0 0.00 0.00 0.00 76 1017.9
20260502065716 43 62 0.0 0.0 0.00 0.00 0.00 77 1017.7
20260502065213 43 62 0.0 0.0 0.00 0.00 0.00 76 1017.5
20260502064712 43 61 0.0 0.0 0.00 0.00 0.00 76 1017.7
20260502064208 44 63 0.0 0.0 0.00 0.00 0.00 76 1017.8
20260502063706 44 63 0.0 0.0 0.00 0.00 0.00 77 1017.6
20260502063204 44 63 0.0 0.0 0.00 0.00 0.00 76 1017.6
20260502062701 44 63 0.0 0.0 0.00 0.00 0.00 75 1017.6
20260502062158 44 63 0.0 0.0 0.00 0.00 0.00 75 1017.6
20260502061657 45 64 0.0 0.0 0.00 0.00 0.00 74 1017.4
20260502061154 46 63 0.0 0.0 0.00 0.00 0.00 73 1017.3
20260502060649 46 64 0.0 0.0 0.00 0.00 0.00 73 1017.5
20260502060146 45 64 0.0 0.0 0.00 0.00 0.00 73 1017.1
20260502055643 45 63 0.0 0.0 0.00 0.00 0.00 74 1017.3
20260502055141 45 62 0.0 0.0 0.00 0.00 0.00 74 1017.4
20260502054640 45 62 0.0 0.0 0.00 0.00 0.00 74 1017.1
20260502054137 45 63 0.0 0.0 0.00 0.00 0.00 74 1017.1
20260502053634 45 64 0.0 0.0 0.00 0.00 0.00 74 1017.1
20260502053131 45 63 0.0 0.0 0.00 0.00 0.00 73 1017.1
20260502052629 46 62 0.0 0.0 0.00 0.00 0.00 72 1017.0
20260502052127 46 63 0.0 0.0 0.00 0.00 0.00 71 1017.1
20260502051625 47 63 0.0 0.0 0.00 0.00 0.00 69 1017.0
20260502051123 47 63 0.0 0.0 0.00 0.00 0.00 69 1016.9
20260502050619 47 64 0.0 0.0 0.00 0.00 0.00 69 1016.9
20260502050116 46 61 0.0 0.0 0.00 0.00 0.00 70 1016.8
20260502045612 47 60 1.0 1.0 0.00 0.00 0.00 70 1016.8
20260502045109 50 63 0.0 0.0 0.00 0.00 0.00 63 1016.6
20260502044606 50 61 0.0 0.0 0.00 0.00 0.00 66 1016.8
20260502044103 50 63 0.0 0.0 0.00 0.00 0.00 62 1016.7
20260502043601 51 62 0.0 0.0 0.00 0.00 0.00 62 1016.6
20260502043056 52 64 0.0 0.0 0.00 0.00 0.00 55 1016.7
20260502042551 52 64 0.0 0.0 0.00 0.00 0.00 57 1016.5
20260502042049 52 64 0.0 0.0 0.00 0.00 0.00 59 1016.7
20260502041547 53 64 0.0 0.0 0.00 0.00 0.00 59 1016.5
20260502041043 53 64 0.0 0.0 0.00 0.00 0.00 58 1016.7
20260502040540 53 64 0.0 0.0 0.00 0.00 0.00 56 1016.4
20260502040037 54 64 0.0 0.0 0.00 0.00 0.00 57 1016.5
20260502035533 54 63 0.0 0.0 0.00 0.00 0.00 59 1016.7
20260502035031 53 59 0.0 1.0 0.00 0.00 0.00 58 1016.4
20260502034528 53 62 0.0 0.0 0.00 0.00 0.00 58 1016.0
20260502034027 54 64 0.0 0.0 0.00 0.00 0.00 58 1016.3
20260502033525 55 64 0.0 0.0 0.00 0.00 0.00 57 1015.9
20260502033022 55 66 0.0 0.0 0.00 0.00 0.00 57 1015.9
20260502032517 54 63 0.0 0.0 0.00 0.00 0.00 57 1015.9
20260502032014 55 67 0.0 0.0 0.00 0.00 0.00 59 1016.0
20260502031512 55 70 1.0 1.0 0.00 0.00 0.00 56 1016.0
20260502031010 57 72 0.0 1.0 0.00 0.00 0.00 54 1015.8
20260502030509 58 51 2.0 2.0 0.00 0.00 0.00 52 1015.8
20260502030006 59 52 1.0 1.0 0.00 0.00 0.00 50 1015.7
20260502025503 58 66 0.0 0.0 0.00 0.00 0.00 50 1015.6
20260502025001 59 65 0.0 0.0 0.00 0.00 0.00 52 1015.4
20260502024458 60 39 3.0 3.0 0.00 0.00 0.00 50 1015.5
20260502023957 61 59 0.0 1.0 0.00 0.00 0.00 50 1015.4
20260502023454 62 61 1.0 1.0 0.00 0.00 0.00 48 1015.5
20260502022951 64 66 0.0 0.0 0.00 0.00 0.00 48 1015.5
20260502022447 65 63 0.0 0.0 0.00 0.00 0.00 42 1015.5
20260502021945 66 73 1.0 1.0 0.00 0.00 0.00 41 1015.4
20260502021442 66 57 1.0 1.0 0.00 0.00 0.00 40 1015.2
20260502020939 66 68 1.0 1.0 0.00 0.00 0.00 41 1015.4